Location: St. Louis
(38.6270°N, 90.1994°W)
Time: 14:00:42
(UTC-06:00)

Vanguard 1 - Pass Details

Date: 06 December 2021
Orbit: 652 x 3830 km, 34.2° (Epoch: 19 January)

Event Time Altitude Azimuth Distance (km) Brightness Sun altitude
Rises 21:24:56 0° 216° (SW) 6,146 14.3 -54.8°
Reaches altitude 10° 21:28:40 10° 211° (SSW) 5,500 13.9 -55.5°
Enters shadow 21:33:56 25° 199° (SSW) 4,779 13.4 -56.5°
Maximum altitude 21:45:45 47° 143° (SE) 4,320 - -58.7°
Drops below altitude 10° 22:07:14 10° 79° (E) 6,822 - -62.5°
Sets 22:12:30 0° 75° (ENE) 7,667 - -63.4°
